COSMOS 1892

Last updated on Mon Oct 20 2025 00:02:14 GMT+0000 (Coordinated Universal Time)

1 18421U 87088A 25292.25019147 .00233858 00000+0 91760-3 0 9990 2 18421 82.4700 104.8091 0004046 7.5888 352.5443 15.86334719 82612
UTC large
Height (km)
Speed (km/s)
/
Latitude / Longitude
Inclination (degrees)
Orbital Period (minutes)
Azimuth
Elevation
Range (km)
Doppler Factor

Next 0 passes for location: London (51.5072 / 0.1276)

Sorry there are no passes over London.